TimeCST,TemperatureF,Dew PointF,Humidity,Sea Level PressureIn,VisibilityMPH,Wind Direction,Wind SpeedMPH,Gust SpeedMPH,PrecipitationIn,Events,Conditions,WindDirDegrees,DateUTC
12:53 AM,36.0,21.9,57,30.25,10.0,Calm,Calm,-,N/A,,Overcast,0,2012-12-31 06:53:00
1:53 AM,35.1,26.1,70,30.26,10.0,South,3.5,-,0.00,Rain,Light Rain,180,2012-12-31 07:53:00
2:26 AM,33.8,28.4,81,30.23,-9999.0,SE,9.2,-,0.03,Rain,Rain,140,2012-12-31 08:26:00
2:53 AM,33.1,28.9,85,30.24,-9999.0,SE,8.1,-,0.04,Rain,Rain,130,2012-12-31 08:53:00
3:53 AM,32.0,30.9,96,30.20,-9999.0,SE,8.1,-,0.06,Rain,Rain,140,2012-12-31 09:53:00
4:48 AM,33.8,30.2,87,30.18,-9999.0,SSE,10.4,-,0.04,Rain,Light Rain,160,2012-12-31 10:48:00
4:53 AM,33.1,30.9,92,30.19,-9999.0,SSE,9.2,-,0.04,Rain,Light Rain,150,2012-12-31 10:53:00
5:53 AM,33.1,32.0,96,30.21,-9999.0,South,3.5,-,0.02,,Overcast,170,2012-12-31 11:53:00
6:53 AM,33.1,32.0,96,30.20,-9999.0,SSE,6.9,-,0.01,Rain,Light Rain,150,2012-12-31 12:53:00
7:32 AM,33.8,32.0,93,30.15,-9999.0,SSE,8.1,-,0.02,Rain,Light Rain,150,2012-12-31 13:32:00
7:45 AM,33.8,32.0,93,30.15,-9999.0,SE,6.9,-,0.03,Rain,Light Rain,130,2012-12-31 13:45:00
7:53 AM,33.1,30.9,92,30.17,-9999.0,SE,8.1,-,0.03,Rain,Light Rain,130,2012-12-31 13:53:00
8:46 AM,33.8,33.8,100,30.15,-9999.0,SSE,6.9,-,0.00,Rain,Light Rain,150,2012-12-31 14:46:00
8:53 AM,34.0,33.1,96,30.19,-9999.0,South,5.8,-,0.01,Rain,Light Rain,170,2012-12-31 14:53:00
9:00 AM,33.8,33.8,100,30.15,-9999.0,SSE,5.8,-,0.01,Rain,Rain,150,2012-12-31 15:00:00
9:53 AM,34.0,33.1,96,30.17,-9999.0,SE,3.5,-,0.07,Rain,Light Rain,130,2012-12-31 15:53:00
10:02 AM,33.8,33.8,100,30.15,-9999.0,Calm,Calm,-,0.01,Rain,Rain,0,2012-12-31 16:02:00
10:31 AM,33.8,33.8,100,30.13,-9999.0,SE,6.9,-,0.06,Rain,Rain,130,2012-12-31 16:31:00
10:50 AM,33.8,33.8,100,30.13,-9999.0,East,4.6,-,0.09,Rain,Rain,80,2012-12-31 16:50:00
10:53 AM,34.0,33.1,96,30.16,-9999.0,East,3.5,-,0.10,Rain,Rain,90,2012-12-31 16:53:00
11:25 AM,33.8,33.8,100,30.12,-9999.0,East,4.6,-,0.08,Rain,Rain,90,2012-12-31 17:25:00
11:53 AM,34.0,33.1,96,30.13,-9999.0,ESE,5.8,-,0.12,Rain,Rain,110,2012-12-31 17:53:00
12:00 PM,33.8,33.8,100,30.10,-9999.0,SE,6.9,-,0.00,Rain,Light Rain,130,2012-12-31 18:00:00
12:53 PM,34.0,33.1,96,30.09,-9999.0,ENE,4.6,-,0.07,Rain,Rain,60,2012-12-31 18:53:00
1:53 PM,35.1,34.0,96,30.06,-9999.0,ENE,3.5,-,0.08,Rain,Rain,70,2012-12-31 19:53:00
2:45 PM,35.6,33.8,93,30.01,-9999.0,SE,9.2,-,0.07,Rain,Rain,130,2012-12-31 20:45:00
2:53 PM,35.1,34.0,96,30.04,-9999.0,ESE,9.2,-,0.07,Rain,Light Rain,120,2012-12-31 20:53:00
3:07 PM,35.6,33.8,93,30.01,-9999.0,SE,8.1,-,0.01,Rain,Light Rain,130,2012-12-31 21:07:00
3:53 PM,35.1,34.0,96,30.03,-9999.0,SE,8.1,-,0.01,,Overcast,130,2012-12-31 21:53:00
4:53 PM,35.1,34.0,96,30.01,6.0,SE,6.9,-,N/A,,Overcast,130,2012-12-31 22:53:00
5:11 PM,35.6,33.8,93,29.99,5.0,SE,8.1,-,N/A,,Overcast,140,2012-12-31 23:11:00
5:18 PM,35.6,33.8,93,29.99,5.0,SE,6.9,-,N/A,,Overcast,140,2012-12-31 23:18:00
5:53 PM,35.1,34.0,96,30.02,5.0,SE,6.9,-,N/A,,Overcast,140,2012-12-31 23:53:00
6:53 PM,35.1,35.1,100,30.02,3.0,SE,5.8,-,N/A,,Overcast,130,2013-01-01 00:53:00
7:53 PM,35.1,34.0,96,30.03,3.0,ESE,4.6,-,N/A,,Overcast,110,2013-01-01 01:53:00
8:23 PM,35.6,33.8,93,30.00,1.8,East,3.5,-,N/A,,Overcast,100,2013-01-01 02:23:00
8:53 PM,35.1,34.0,96,30.03,1.5,ESE,4.6,-,N/A,,Overcast,110,2013-01-01 02:53:00
9:02 PM,35.6,33.8,93,30.00,2.5,SE,4.6,-,N/A,,Overcast,130,2013-01-01 03:02:00
9:26 PM,35.6,33.8,93,30.01,1.2,Calm,Calm,-,N/A,,Overcast,0,2013-01-01 03:26:00
9:53 PM,35.6,33.8,93,30.02,1.0,Calm,Calm,-,N/A,,Mist,0,2013-01-01 03:53:00
10:03 PM,35.6,33.8,93,30.02,0.8,Calm,Calm,-,N/A,,Mist,0,2013-01-01 04:03:00
10:14 PM,35.6,35.6,100,30.02,0.5,Calm,Calm,-,N/A,Fog,Fog,0,2013-01-01 04:14:00
10:53 PM,35.1,35.1,100,30.06,0.5,Calm,Calm,-,N/A,Fog,Fog,0,2013-01-01 04:53:00
11:34 PM,35.6,35.6,100,30.03,0.8,Calm,Calm,-,N/A,,Mist,0,2013-01-01 05:34:00
11:53 PM,35.1,35.1,100,30.06,0.8,Calm,Calm,-,N/A,,Mist,0,2013-01-01 05:53:00